This demonstration page uses our WeatherBlox Daily Observations layout. Learn more.

41.55636, -103.73856

Hourly Observations for August 7, 2018

Temp ( °F °C ) Dew Point ( °F °C ) Humidity (%) Winds ( mph kmh ) Pressure ( in mb ) Visibility ( mi km ) Precip ( " mm )
12:58 am 00:58 Clear 58 14.2 55 12.7 91 91 W 7 11 30.12 1020 10 16.09344 0 0
1:58 am 01:58 Clear 56 13.6 55 12.7 94 94 W 8 13 30.09 1019 9 14.484096 0 0
2:58 am 02:58 Clear 56 13.5 54 12.3 93 93 W 6 9 30.09 1019 10 16.09344 0 0
3:58 am 03:58 Clear 56 13.1 53 11.8 92 92 WNW 5 7 30.06 1018 10 16.09344 0 0
4:58 am 04:58 Clear 56 13.1 53 11.5 90 90 WNW 3 6 30.06 1018 10 16.09344 0 0
5:58 am 05:58 Sunny 55 13 53 11.4 90 90 WNW 6 9 30.09 1019 10 16.09344 0 0
6:58 am 06:58 Sunny 56 13.3 54 12 92 92 WNW 8 13 30.09 1019 10 16.09344 0 0
7:58 am 07:58 Sunny 63 17 57 14.1 83 83 W 6 9 30.06 1018 10 16.09344 0 0
8:58 am 08:58 Sunny 65 18.1 58 14.5 80 80 SSE 6 9 30.09 1019 10 16.09344 0 0
9:58 am 09:58 Sunny 69 20.6 60 15.4 72 72 SE 9 15 30.09 1019 10 16.09344 0 0
10:58 am 10:58 Sunny 71 21.9 59 14.9 65 65 SSW 3 6 30.06 1018 10 16.09344 0 0
11:56 am 11:56 Sunny 74 23.4 58 14.4 57 57 W 3 6 30.03 1017 10 16.09344 0 0
12:58 pm 12:58 Sunny 77 24.9 57 14.1 51 51 SW 7 11 30 1016 10 16.09344 0 0
1:58 pm 13:58 Partly Cloudy 79 26 54 12 42 42 Calm 30 1016 10 16.09344 0 0
2:58 pm 14:58 Mostly Sunny 79 26.2 54 12.1 42 42 SW 13 20 29.97 1015 10 16.09344 0 0
3:58 pm 15:58 Sunny 80 26.6 51 10.3 36 36 S 6 9 29.97 1015 10 16.09344 0 0
4:58 pm 16:58 Sunny 81 27 49 9.5 33 33 SSE 8 13 29.94 1014 10 16.09344 0 0
5:58 pm 17:58 Sunny 80 26.7 50 10 35 35 S 10 17 29.97 1015 10 16.09344 0 0
6:58 pm 18:58 Sunny 76 24.7 55 12.7 47 47 SSW 9 15 29.94 1014 10 16.09344 0 0
7:58 pm 19:58 Sunny 68 19.9 55 12.9 64 64 E 7 11 29.97 1015 10 16.09344 0 0
8:58 pm 20:58 Mostly Clear 68 19.9 54 12.1 61 61 E 7 11 30 1016 10 16.09344 0 0
9:58 pm 21:58 Mostly Cloudy 67 19.4 54 12.1 63 63 NE 3 6 30.03 1017 10 16.09344 0 0
10:58 pm 22:58 Mostly Cloudy with Thunderstorms 64 17.9 46 7.8 52 52 SE 10 17 30.03 1017 10 16.09344 0.4 10.16
11:58 pm 23:58 Clear 62 16.8 48 8.9 60 60 SE 9 15 30.03 1017 10 16.09344 0 0

Powered by AerisWeather